OHDAC EFKK-EFOU

Flight info

Callsign OHDAC
Flight time 0h 49m
Altitude 9000
Route VAXUN T255 IXONO
Aircraft DA42/L-SBDGRY/S

Departure

Time 2026-04-27 15:23
Airport Kokkola-Pietarsaari Airport (EFKK)

Arrival

Time 2026-04-27 16:13
Airport Oulu Airport (EFOU)
Time Latitude Longitude Altitude Speed Heading
2026-04-27 15:16 63.71951 23.13451 83 ft 0 kts 262°
2026-04-27 15:21 63.71944 23.13464 83 ft 7 kts 76°
2026-04-27 15:21 63.71940 23.13663 83 ft 18 kts 133°
2026-04-27 15:21 63.71921 23.13946 84 ft 20 kts 101°
2026-04-27 15:22 63.71910 23.14275 84 ft 20 kts 32°
2026-04-27 15:22 63.71959 23.14305 84 ft 0 kts 11°
2026-04-27 15:23 63.72076 23.14352 84 ft 51 kts
2026-04-27 15:23 63.72551 23.14561 236 ft 71 kts 10°
2026-04-27 15:23 63.72989 23.14725 615 ft 64 kts 13°
2026-04-27 15:23 63.73376 23.14891 1035 ft 54 kts 12°
2026-04-27 15:24 63.73732 23.15047 1451 ft 50 kts
2026-04-27 15:24 63.74039 23.15171 1846 ft 47 kts
2026-04-27 15:24 63.74347 23.15294 2171 ft 46 kts 10°
2026-04-27 15:24 63.74635 23.15426 2514 ft 43 kts 11°
2026-04-27 15:25 63.74873 23.15855 2838 ft 45 kts 26°
2026-04-27 15:25 63.75101 23.16310 3159 ft 45 kts 27°
2026-04-27 15:25 63.75329 23.16780 3487 ft 45 kts 28°
2026-04-27 15:25 63.75557 23.17255 3785 ft 48 kts 28°
2026-04-27 15:26 63.75792 23.17761 4110 ft 48 kts 28°
2026-04-27 15:26 63.76026 23.18272 4437 ft 48 kts 28°
2026-04-27 15:26 63.76260 23.18789 4750 ft 49 kts 28°
2026-04-27 15:26 63.76495 23.19313 5073 ft 49 kts 28°
2026-04-27 15:27 63.76728 23.19838 5393 ft 49 kts 27°
2026-04-27 15:27 63.76965 23.20372 5711 ft 50 kts 28°
2026-04-27 15:27 63.77206 23.20919 6028 ft 50 kts 28°
2026-04-27 15:27 63.77452 23.21476 6346 ft 51 kts 29°
2026-04-27 15:28 63.77696 23.22036 6671 ft 51 kts 29°
2026-04-27 15:28 63.77940 23.22594 6990 ft 51 kts 28°
2026-04-27 15:28 63.78190 23.23162 7311 ft 51 kts 28°
2026-04-27 15:28 63.78442 23.23731 7625 ft 53 kts 29°
2026-04-27 15:29 63.78696 23.24308 7942 ft 54 kts 29°
2026-04-27 15:29 63.78953 23.24891 8259 ft 54 kts 29°
2026-04-27 15:29 63.79218 23.25496 8588 ft 56 kts 30°
2026-04-27 15:29 63.79484 23.26103 8925 ft 55 kts 30°
2026-04-27 15:30 63.79752 23.26714 9239 ft 57 kts 30°
2026-04-27 15:30 63.80029 23.27347 9561 ft 58 kts 30°
2026-04-27 15:30 63.80309 23.27990 9875 ft 59 kts 30°
2026-04-27 15:30 63.80598 23.28652 10187 ft 60 kts 30°
2026-04-27 15:31 63.80891 23.29322 10506 ft 61 kts 31°
2026-04-27 15:31 63.81181 23.29987 10823 ft 61 kts 31°
2026-04-27 15:31 63.81484 23.30676 11115 ft 65 kts 32°
2026-04-27 15:31 63.81878 23.31531 11138 ft 95 kts 34°
2026-04-27 15:32 63.82408 23.32740 11135 ft 119 kts 37°
2026-04-27 15:32 63.83021 23.34170 11122 ft 134 kts 39°
2026-04-27 15:32 63.83691 23.35737 11111 ft 142 kts 39°
2026-04-27 15:32 63.84391 23.37370 11102 ft 146 kts 39°
2026-04-27 15:33 63.85109 23.39024 11096 ft 148 kts 39°
2026-04-27 15:33 63.85827 23.40686 11103 ft 149 kts 39°
2026-04-27 15:33 63.86553 23.42369 11104 ft 150 kts 39°
2026-04-27 15:33 63.87285 23.44058 11104 ft 150 kts 39°
2026-04-27 15:34 63.88023 23.45764 11101 ft 150 kts 39°
2026-04-27 15:34 63.88754 23.47453 11105 ft 150 kts 39°
2026-04-27 15:34 63.89482 23.49135 11104 ft 150 kts 39°
2026-04-27 15:34 63.90219 23.50841 11098 ft 150 kts 39°
2026-04-27 15:35 63.90942 23.52517 11098 ft 150 kts 39°
2026-04-27 15:35 63.91677 23.54220 11097 ft 150 kts 39°
2026-04-27 15:35 63.92409 23.55917 11094 ft 150 kts 39°
2026-04-27 15:35 63.93136 23.57604 11088 ft 150 kts 39°
2026-04-27 15:36 63.93864 23.59296 11096 ft 150 kts 39°
2026-04-27 15:36 63.94604 23.61016 11094 ft 150 kts 39°
2026-04-27 15:36 63.95333 23.62711 11097 ft 150 kts 39°
2026-04-27 15:36 63.96068 23.64422 11095 ft 151 kts 39°
2026-04-27 15:37 63.96793 23.66115 11099 ft 151 kts 40°
2026-04-27 15:37 63.97530 23.67832 11096 ft 151 kts 40°
2026-04-27 15:37 63.98267 23.69553 11096 ft 151 kts 40°
2026-04-27 15:37 63.98996 23.71257 11096 ft 151 kts 40°
2026-04-27 15:38 63.99728 23.72970 11098 ft 151 kts 40°
2026-04-27 15:38 64.00467 23.74699 11094 ft 150 kts 40°
2026-04-27 15:38 64.01198 23.76408 11092 ft 150 kts 40°
2026-04-27 15:38 64.01926 23.78117 11088 ft 150 kts 40°
2026-04-27 15:39 64.02656 23.79828 11088 ft 150 kts 39°
2026-04-27 15:39 64.03395 23.81560 11090 ft 151 kts 39°
2026-04-27 15:39 64.04121 23.83264 11081 ft 151 kts 40°
2026-04-27 15:39 64.04858 23.84998 11082 ft 151 kts 40°
2026-04-27 15:40 64.05585 23.86710 11087 ft 151 kts 40°
2026-04-27 15:40 64.06319 23.88436 11096 ft 151 kts 40°
2026-04-27 15:40 64.07046 23.90154 11086 ft 151 kts 40°
2026-04-27 15:40 64.07779 23.91887 11088 ft 150 kts 40°
2026-04-27 15:41 64.08498 23.93586 11084 ft 150 kts 40°
2026-04-27 15:41 64.09231 23.95317 11082 ft 150 kts 40°
2026-04-27 15:41 64.09954 23.97030 11084 ft 150 kts 40°
2026-04-27 15:41 64.10667 23.98717 11085 ft 150 kts 40°
2026-04-27 15:42 64.11414 24.00487 11085 ft 151 kts 40°
2026-04-27 15:42 64.12144 24.02216 11083 ft 151 kts 40°
2026-04-27 15:42 64.12874 24.03949 11086 ft 151 kts 40°
2026-04-27 15:42 64.13606 24.05687 11093 ft 151 kts 40°
2026-04-27 15:43 64.14342 24.07434 11090 ft 152 kts 40°
2026-04-27 15:43 64.15074 24.09174 11089 ft 152 kts 40°
2026-04-27 15:43 64.15807 24.10921 11092 ft 152 kts 40°
2026-04-27 15:43 64.16534 24.12651 11091 ft 152 kts 40°
2026-04-27 15:44 64.17265 24.14392 11090 ft 152 kts 40°
2026-04-27 15:44 64.18002 24.16146 11084 ft 152 kts 40°
2026-04-27 15:44 64.18733 24.17892 11080 ft 152 kts 40°
2026-04-27 15:44 64.19468 24.19647 11091 ft 152 kts 41°
2026-04-27 15:45 64.20204 24.21408 11089 ft 153 kts 41°
2026-04-27 15:45 64.20935 24.23161 11078 ft 153 kts 40°
2026-04-27 15:45 64.21668 24.24918 11085 ft 153 kts 40°
2026-04-27 15:45 64.22405 24.26685 11085 ft 153 kts 40°
2026-04-27 15:46 64.23135 24.28437 11080 ft 153 kts 40°
2026-04-27 15:46 64.23868 24.30197 11083 ft 153 kts 40°
2026-04-27 15:46 64.24610 24.31981 11080 ft 153 kts 40°
2026-04-27 15:46 64.25342 24.33741 11078 ft 153 kts 40°
2026-04-27 15:47 64.26070 24.35492 11087 ft 153 kts 40°
2026-04-27 15:47 64.26800 24.37250 11090 ft 153 kts 40°
2026-04-27 15:47 64.27536 24.39021 11083 ft 153 kts 41°
2026-04-27 15:47 64.28264 24.40776 11072 ft 153 kts 41°
2026-04-27 15:48 64.29002 24.42559 11071 ft 153 kts 41°
2026-04-27 15:48 64.29736 24.44337 11072 ft 153 kts 41°
2026-04-27 15:48 64.30472 24.46116 11078 ft 153 kts 41°
2026-04-27 15:49 64.31950 24.49696 11071 ft 153 kts 41°
2026-04-27 15:49 64.32677 24.51460 11072 ft 154 kts 41°
2026-04-27 15:49 64.33418 24.53260 11068 ft 154 kts 41°
2026-04-27 15:49 64.34151 24.55041 11070 ft 154 kts 41°
2026-04-27 15:50 64.34888 24.56834 11073 ft 153 kts 41°
2026-04-27 15:50 64.35627 24.58628 11068 ft 154 kts 41°
2026-04-27 15:50 64.36358 24.60405 11063 ft 153 kts 41°
2026-04-27 15:50 64.37093 24.62200 11065 ft 153 kts 41°
2026-04-27 15:51 64.37827 24.63989 11059 ft 153 kts 41°
2026-04-27 15:51 64.38551 24.65758 11063 ft 153 kts 42°
2026-04-27 15:51 64.39285 24.67552 11065 ft 153 kts 42°
2026-04-27 15:51 64.40023 24.69353 11060 ft 154 kts 42°
2026-04-27 15:52 64.40757 24.71150 11059 ft 154 kts 42°
2026-04-27 15:52 64.41491 24.72948 11060 ft 154 kts 42°
2026-04-27 15:52 64.42230 24.74761 11058 ft 154 kts 42°
2026-04-27 15:52 64.42960 24.76555 11060 ft 154 kts 42°
2026-04-27 15:53 64.43703 24.78380 11062 ft 154 kts 42°
2026-04-27 15:53 64.44437 24.80177 11054 ft 154 kts 42°
2026-04-27 15:53 64.45166 24.81971 11050 ft 154 kts 43°
2026-04-27 15:53 64.45902 24.83781 11046 ft 154 kts 43°
2026-04-27 15:54 64.46633 24.85584 11049 ft 154 kts 43°
2026-04-27 15:54 64.47367 24.87395 11051 ft 154 kts 43°
2026-04-27 15:54 64.48099 24.89201 11051 ft 154 kts 42°
2026-04-27 15:54 64.48833 24.91012 11047 ft 154 kts 42°
2026-04-27 15:55 64.49565 24.92821 11054 ft 154 kts 42°
2026-04-27 15:55 64.50056 24.94030 10964 ft 157 kts 42°
2026-04-27 15:55 64.51086 24.96577 10663 ft 165 kts 43°
2026-04-27 15:55 64.51861 24.98498 10452 ft 161 kts 43°
2026-04-27 15:56 64.52619 25.00382 10269 ft 159 kts 43°
2026-04-27 15:56 64.53371 25.02246 10080 ft 157 kts 43°
2026-04-27 15:56 64.54118 25.04100 9883 ft 156 kts 43°
2026-04-27 15:56 64.54858 25.05944 9693 ft 155 kts 43°
2026-04-27 15:57 64.55595 25.07778 9503 ft 155 kts 43°
2026-04-27 15:57 64.56321 25.09589 9315 ft 154 kts 43°
2026-04-27 15:57 64.57052 25.11412 9132 ft 153 kts 42°
2026-04-27 15:57 64.57773 25.13211 8939 ft 153 kts 42°
2026-04-27 15:58 64.58497 25.15019 8755 ft 152 kts 42°
2026-04-27 15:58 64.59222 25.16831 8569 ft 152 kts 42°
2026-04-27 15:58 64.59930 25.18605 8386 ft 151 kts 42°
2026-04-27 15:58 64.60648 25.20399 8199 ft 150 kts 42°
2026-04-27 15:59 64.61361 25.22187 8015 ft 150 kts 42°
2026-04-27 15:59 64.62062 25.23945 7828 ft 149 kts 42°
2026-04-27 15:59 64.62771 25.25721 7633 ft 149 kts 42°
2026-04-27 15:59 64.63475 25.27490 7441 ft 149 kts 42°
2026-04-27 16:00 64.64172 25.29244 7256 ft 148 kts 42°
2026-04-27 16:00 64.64645 25.30433 7133 ft 148 kts 41°
2026-04-27 16:00 64.65573 25.32745 6888 ft 147 kts 39°
2026-04-27 16:00 64.66272 25.34478 6695 ft 147 kts 40°
2026-04-27 16:01 64.66966 25.36216 6512 ft 146 kts 41°
2026-04-27 16:01 64.67653 25.37948 6330 ft 146 kts 40°
2026-04-27 16:01 64.68343 25.39691 6139 ft 145 kts 40°
2026-04-27 16:01 64.69022 25.41402 5947 ft 144 kts 41°
2026-04-27 16:02 64.69699 25.43117 5757 ft 144 kts 40°
2026-04-27 16:02 64.70379 25.44844 5568 ft 144 kts 40°
2026-04-27 16:02 64.71056 25.46561 5375 ft 143 kts 40°
2026-04-27 16:02 64.71732 25.48269 5188 ft 143 kts 40°
2026-04-27 16:03 64.72403 25.49971 4999 ft 143 kts 40°
2026-04-27 16:03 64.73074 25.51678 4806 ft 142 kts 40°
2026-04-27 16:03 64.73737 25.53365 4620 ft 140 kts 40°
2026-04-27 16:03 64.74380 25.55014 4423 ft 132 kts 39°
2026-04-27 16:04 64.75006 25.56500 4212 ft 126 kts 30°
2026-04-27 16:04 64.75799 25.57300 3966 ft 122 kts 17°
2026-04-27 16:04 64.76588 25.57843 3832 ft 116 kts 12°
2026-04-27 16:04 64.77345 25.58194 3730 ft 111 kts
2026-04-27 16:05 64.78116 25.58414 3576 ft 110 kts
2026-04-27 16:05 64.78867 25.58598 3467 ft 109 kts
2026-04-27 16:05 64.79633 25.58603 3462 ft 112 kts 356°
2026-04-27 16:05 64.80417 25.58131 3402 ft 118 kts 346°
2026-04-27 16:06 64.81171 25.57391 3411 ft 118 kts 339°
2026-04-27 16:06 64.81911 25.56486 3303 ft 120 kts 339°
2026-04-27 16:06 64.82587 25.55620 3284 ft 105 kts 337°
2026-04-27 16:06 64.83207 25.54750 3106 ft 105 kts 337°
2026-04-27 16:07 64.83801 25.53958 2939 ft 87 kts 337°
2026-04-27 16:07 64.84288 25.53208 2691 ft 83 kts 335°
2026-04-27 16:07 64.84747 25.52530 2537 ft 74 kts 338°
2026-04-27 16:07 64.85171 25.51867 2368 ft 73 kts 335°
2026-04-27 16:08 64.85590 25.51194 2218 ft 76 kts 337°
2026-04-27 16:08 64.85999 25.50414 2236 ft 75 kts 333°
2026-04-27 16:08 64.86427 25.49608 2114 ft 82 kts 333°
2026-04-27 16:08 64.86887 25.48783 1955 ft 88 kts 333°
2026-04-27 16:09 64.87419 25.48226 1806 ft 83 kts 350°
2026-04-27 16:09 64.88511 25.47507 1607 ft 80 kts 346°
2026-04-27 16:09 64.89004 25.47063 1471 ft 67 kts 342°
2026-04-27 16:10 64.89812 25.45916 1109 ft 68 kts 332°
2026-04-27 16:10 64.90509 25.44433 846 ft 66 kts 323°
2026-04-27 16:11 64.90811 25.43631 746 ft 66 kts 318°
2026-04-27 16:11 64.91338 25.41857 560 ft 66 kts 312°
2026-04-27 16:12 64.91818 25.39991 358 ft 67 kts 310°
2026-04-27 16:12 64.92077 25.39034 217 ft 71 kts 308°
2026-04-27 16:12 64.92612 25.36992 46 ft 69 kts 307°
2026-04-27 16:13 64.92763 25.36418 46 ft 11 kts 315°
2026-04-27 16:13 64.92883 25.36493 45 ft 9 kts 31°
2026-04-27 16:13 64.92930 25.36488 45 ft 7 kts 302°
2026-04-27 16:14 64.93043 25.36141 46 ft 15 kts 48°
2026-04-27 16:14 64.93159 25.36641 45 ft 13 kts 78°
2026-04-27 16:15 64.93149 25.36667 44 ft 0 kts 337°